User: anonymous   Login
Location: Waning Moon II Observatory
(30.3730°N, 89.7620°W)
Time: 13:09:06
(UTC-06:00)
Language:

Meteor 1-21 - Orbit

View from above orbital plane
View from above orbital plane
View from above satellite
View from above satellite

Ground track
Ground track

The orbit data is extracted from the following two-line orbital elements,

1  7714U 75023A   17056.79297162 +.00000042 +00000-0 +17677-4 0  9996
2  7714 081.2127 300.1326 0029491 211.6700 148.2696 14.07962388469260
Epoch (UTC): 25 February 2017 19:01:52
Eccentricity: 0.0029491
inclination: 81.2127°
perigee height: 845 km
apogee height: 888 km
right ascension of ascending node: 300.1326°
argument of perigee: 211.6700°
revolutions per day: 14.07962388
mean anomaly at epoch: 148.2696°
orbit number at epoch: 46926

The dashed part of the orbit path shows where the satellite is in the earth's shadow,  

DLR